FW9007 Weather Reports


time (UTC)temp
C
wind
direction
speed
KPH
gust
KPH
rain 1hr
cm
rain 24hr
cm
rain mn
cm
humidity
%
barometer
mb
20260503212452 -17 256 8.0 12.9 0.00 0.00 0.00 1011.9
20260503211949 -17 233 8.0 11.3 0.00 0.00 0.00 1012.0
20260503211447 -17 260 11.3 16.1 0.00 0.00 0.00 1011.9
20260503210942 -17 240 9.7 12.9 0.00 0.00 0.00 1012.4
20260503210439 -17 221 8.0 11.3 0.00 0.00 0.00 1012.1
20260503205934 -17 219 4.8 8.0 0.00 0.00 0.00 1012.5
20260503205431 -17 247 8.0 9.7 0.00 0.00 0.00 1012.6
20260503204927 -17 189 8.0 11.3 0.00 0.00 0.00 1012.5
20260503204425 -17 186 6.4 9.7 0.00 0.00 0.00 1012.7
20260503203922 -17 237 6.4 9.7 0.00 0.00 0.00 1012.8
20260503203419 -17 256 8.0 11.3 0.00 0.00 0.00 1013.0
20260503202916 -17 225 4.8 9.7 0.00 0.00 0.00 1013.3
20260503202414 -17 214 4.8 4.8 0.00 0.00 0.00 1013.2
20260503201912 -17 222 8.0 11.3 0.00 0.00 0.00 1013.6
20260503201409 -17 214 8.0 9.7 0.00 0.00 0.00 1013.5
20260503200907 -17 219 6.4 8.0 0.00 0.00 0.00 1013.7
20260503200402 -17 219 6.4 9.7 0.00 0.00 0.00 1013.7
20260503195859 -17 231 9.7 12.9 0.00 0.00 0.00 1013.7
20260503195356 -17 157 9.7 12.9 0.00 0.00 0.00 1013.8
20260503194853 -17 282 4.8 8.0 0.00 0.00 0.00 1014.1
20260503194349 -17 163 6.4 11.3 0.00 0.00 0.00 1014.1
20260503193845 -17 231 4.8 8.0 0.00 0.00 0.00 1014.5
20260503193341 -17 243 8.0 9.7 0.00 0.00 0.00 1014.5
20260503192837 -17 181 4.8 8.0 0.00 0.00 0.00 1014.2
20260503192333 -17 237 6.4 8.0 0.00 0.00 0.00 1014.3
20260503191830 -17 228 6.4 8.0 0.00 0.00 0.00 1014.2
20260503191327 -17 249 8.0 14.5 0.00 0.00 0.00 1014.1
20260503190823 -17 106 6.4 9.7 0.00 0.00 0.00 1014.1
20260503190321 -17 238 12.9 16.1 0.00 0.00 0.00 1014.4
20260503185818 -17 222 8.0 12.9 0.00 0.00 0.00 1014.5
20260503185313 -17 273 8.0 12.9 0.00 0.00 0.00 1014.5
20260503184808 -17 220 9.7 11.3 0.00 0.00 0.00 1014.4
20260503184304 -17 245 6.4 9.7 0.00 0.00 0.00 1014.6
20260503183800 -17 235 8.0 11.3 0.00 0.00 0.00 1014.7
20260503183258 -17 209 3.2 3.2 0.00 0.00 0.00 1014.9
20260503182755 -17 246 4.8 4.8 0.00 0.00 0.00 1015.2
20260503182254 -17 234 14.5 20.9 0.00 0.00 0.00 1015.3
20260503181750 -17 175 4.8 8.0 0.00 0.00 0.00 1015.2
20260503181247 -17 212 11.3 12.9 0.00 0.00 0.00 1015.5
20260503180744 -17 249 6.4 9.7 0.00 0.00 0.00 1015.7
20260503180242 -17 157 6.4 9.7 0.00 0.00 0.00 1015.7
20260503175738 -17 199 8.0 11.3 0.00 0.00 0.00 1016.0
20260503175236 -17 277 6.4 8.0 0.00 0.00 0.00 1016.2
20260503174732 -17 250 11.3 14.5 0.00 0.00 0.00 1016.0
20260503174231 -17 196 8.0 11.3 0.00 0.00 0.00 1016.2
20260503173730 -17 255 9.7 11.3 0.00 0.00 0.00 1016.2
20260503173227 -17 222 6.4 9.7 0.00 0.00 0.00 1016.5
20260503172724 -17 243 6.4 8.0 0.00 0.00 0.00 1016.4
20260503172221 -17 241 12.9 14.5 0.00 0.00 0.00 1016.5
20260503171717 -17 246 11.3 12.9 0.00 0.00 0.00 1016.5
20260503171215 -17 194 8.0 12.9 0.00 0.00 0.00 1016.6
20260503170711 -17 227 8.0 11.3 0.00 0.00 0.00 1016.6
20260503170208 -17 241 12.9 14.5 0.00 0.00 0.00 1016.6
20260503160130 -17 218 4.8 4.8 0.00 0.00 0.00 1017.6
20260503150600 -17 223 6.4 9.7 0.00 0.00 0.00 1018.1
20260503130949 -17 150 8.0 9.7 0.00 0.00 0.00 1018.3
20260503130447 -17 222 8.0 9.7 0.00 0.00 0.00 1018.5
20260503110344 -17 172 0.0 0.0 0.00 0.00 0.00 1017.7
20260503090235 -17 171 0.0 0.0 0.00 0.00 0.00 1017.4
20260503081202 -17 169 0.0 0.0 0.00 0.00 0.00 1017.4
20260503080658 -17 168 0.0 0.0 0.00 0.00 0.00 1017.4
20260503080155 -17 171 0.0 0.0 0.00 0.00 0.00 1017.6
20260503072632 -17 172 0.0 0.0 0.00 0.00 0.00 1017.4
20260503072129 -17 171 0.0 0.0 0.00 0.00 0.00 1017.5
20260503071625 -17 171 0.0 0.0 0.00 0.00 0.00 1017.5
20260503071122 -17 171 0.0 0.0 0.00 0.00 0.00 1017.6
20260503070619 -17 172 0.0 0.0 0.00 0.00 0.00 1017.5
20260503070117 -17 172 0.0 0.0 0.00 0.00 0.00 1017.6
20260503055038 -17 177 0.0 0.0 0.00 0.00 0.00 1017.9
20260503054533 -17 177 0.0 0.0 0.00 0.00 0.00 1017.9
20260503054031 -17 177 0.0 0.0 0.00 0.00 0.00 1018.0
20260503053529 -17 178 0.0 0.0 0.00 0.00 0.00 1017.9
20260503053026 -17 177 0.0 0.0 0.00 0.00 0.00 1018.1
20260503052523 -17 177 0.0 0.0 0.00 0.00 0.00 1018.0
20260503052019 -17 177 0.0 0.0 0.00 0.00 0.00 1018.1
20260503051515 -17 177 0.0 0.0 0.00 0.00 0.00 1018.0
20260503051013 -17 172 0.0 0.0 0.00 0.00 0.00 1017.9
20260503050508 -17 172 0.0 0.0 0.00 0.00 0.00 1018.1
20260503050006 -17 172 0.0 0.0 0.00 0.00 0.00 1018.1
20260503045503 -17 172 0.0 0.0 0.00 0.00 0.00 1018.1
20260503045000 -17 172 0.0 0.0 0.00 0.00 0.00 1018.0
20260503044457 -17 172 0.0 0.0 0.00 0.00 0.00 1018.0
20260503043954 -17 172 0.0 0.0 0.00 0.00 0.00 1018.1
20260503043450 -17 172 0.0 0.0 0.00 0.00 0.00 1018.1
20260503042947 -17 172 0.0 0.0 0.00 0.00 0.00 1018.1
20260503042444 -17 172 0.0 0.0 0.00 0.00 0.00 1017.9
20260503041940 -17 172 0.0 0.0 0.00 0.00 0.00 1017.9
20260503041437 -17 172 0.0 0.0 0.00 0.00 0.00 1017.9
20260503040935 -17 172 0.0 0.0 0.00 0.00 0.00 1017.8
20260503040432 -17 172 0.0 0.0 0.00 0.00 0.00 1018.2
20260503035929 -17 172 0.0 0.0 0.00 0.00 0.00 1018.1
20260503035426 -17 172 0.0 0.0 0.00 0.00 0.00 1017.9
20260503034923 -17 172 0.0 0.0 0.00 0.00 0.00 1017.9
20260503034421 -17 172 0.0 0.0 0.00 0.00 0.00 1018.0
20260503033918 -17 172 0.0 0.0 0.00 0.00 0.00 1018.2
20260503033415 -17 172 0.0 0.0 0.00 0.00 0.00 1018.0
20260503032913 -17 172 0.0 0.0 0.00 0.00 0.00 1018.2
20260503032412 -17 172 0.0 0.0 0.00 0.00 0.00 1018.2
20260503031909 -17 172 0.0 0.0 0.00 0.00 0.00 1018.3
20260503031406 -17 172 0.0 0.0 0.00 0.00 0.00 1018.0
20260503030903 -17 172 0.0 0.0 0.00 0.00 0.00 1018.3
20260503030359 -17 172 0.0 0.0 0.00 0.00 0.00 1018.3
20260503025855 -17 172 0.0 0.0 0.00 0.00 0.00 1018.1
20260503025353 -17 172 0.0 0.0 0.00 0.00 0.00 1018.1
20260503024850 -17 171 0.0 0.0 0.00 0.00 0.00 1018.3
20260503024347 -17 171 0.0 0.0 0.00 0.00 0.00 1018.0
20260503023844 -17 172 0.0 0.0 0.00 0.00 0.00 1018.1
20260503023341 -17 172 0.0 0.0 0.00 0.00 0.00 1018.1
20260503022837 -17 172 0.0 0.0 0.00 0.00 0.00 1018.0
20260503022332 -17 172 0.0 0.0 0.00 0.00 0.00 1018.0
20260503021829 -17 172 0.0 0.0 0.00 0.00 0.00 1018.0
20260503021325 -17 170 0.0 0.0 0.00 0.00 0.00 1017.9
20260503020822 -17 172 0.0 0.0 0.00 0.00 0.00 1017.8
20260503020320 -17 172 0.0 0.0 0.00 0.00 0.00 1017.9
20260503015816 -17 170 0.0 0.0 0.00 0.00 0.00 1017.8
20260503015314 -17 173 0.0 0.0 0.00 0.00 0.00 1017.6
20260503014809 -17 171 0.0 0.0 0.00 0.00 0.00 1017.7
20260503014307 -17 168 0.0 0.0 0.00 0.00 0.00 1017.6
20260503013804 -17 177 0.0 0.0 0.00 0.00 0.00 1017.5
20260503013302 -17 178 0.0 0.0 0.00 0.00 0.00 1017.4
20260503012759 -17 178 0.0 0.0 0.00 0.00 0.00 1017.6
20260503012256 -17 178 0.0 0.0 0.00 0.00 0.00 1017.6
20260503011753 -17 173 0.0 0.0 0.00 0.00 0.00 1017.7
20260503011249 -17 173 0.0 0.0 0.00 0.00 0.00 1017.4
20260503010746 -17 170 0.0 0.0 0.00 0.00 0.00 1017.4
20260503010243 -17 169 0.0 0.0 0.00 0.00 0.00 1017.4
20260503005740 -17 177 0.0 0.0 0.00 0.00 0.00 1017.3
20260503005237 -17 172 0.0 0.0 0.00 0.00 0.00 1017.5
20260503004733 -17 163 0.0 0.0 0.00 0.00 0.00 1017.4
20260503004232 -17 186 0.0 0.0 0.00 0.00 0.00 1017.3
20260503003729 -17 203 0.0 0.0 0.00 0.00 0.00 1017.5
20260503003226 -17 151 1.6 3.2 0.00 0.00 0.00 1017.3
20260503002722 -17 210 4.8 4.8 0.00 0.00 0.00 1017.4
20260503002219 -17 158 1.6 1.6 0.00 0.00 0.00 1017.2
20260503001715 -17 205 0.0 1.6 0.00 0.00 0.00 1017.1
20260503001212 -17 263 3.2 4.8 0.00 0.00 0.00 1017.1
20260503000710 -17 169 0.0 1.6 0.00 0.00 0.00 1017.2
20260503000207 -17 199 3.2 3.2 0.00 0.00 0.00 1017.0
20260502235704 -17 210 1.6 1.6 0.00 0.00 0.00 1017.1
20260502235202 -17 179 1.6 3.2 0.00 0.00 0.00 1017.1
20260502234657 -17 178 1.6 3.2 0.00 0.00 0.00 1016.9
20260502234155 -17 233 1.6 4.8 0.00 0.00 0.00 1017.2
20260502233651 -17 184 3.2 3.2 0.00 0.00 0.00 1017.0
20260502233148 -17 175 0.0 0.0 0.00 0.00 0.00 1016.9
20260502232643 -17 147 0.0 0.0 0.00 0.00 0.00 1016.9
20260502232141 -17 217 1.6 1.6 0.00 0.00 0.00 1017.0
20260502231637 -17 246 8.0 9.7 0.00 0.00 0.00 1017.3
20260502231135 -17 15 3.2 4.8 0.00 0.00 0.00 1016.9
20260502230634 -17 195 1.6 1.6 0.00 0.00 0.00 1017.0
20260502230132 -17 176 1.6 1.6 0.00 0.00 0.00 1017.1
20260502225627 -17 254 3.2 4.8 0.00 0.00 0.00 1017.0
20260502225125 -17 239 3.2 4.8 0.00 0.00 0.00 1017.0
20260502224621 -17 205 1.6 1.6 0.00 0.00 0.00 1017.2
20260502224117 -17 41 3.2 4.8 0.00 0.00 0.00 1017.0
20260502223615 -17 99 1.6 3.2 0.00 0.00 0.00 1017.0
20260502223114 -17 242 9.7 11.3 0.00 0.00 0.00 1017.1
20260502222611 -17 155 1.6 1.6 0.00 0.00 0.00 1017.1
20260502222107 -17 251 4.8 4.8 0.00 0.00 0.00 1017.3
20260502221602 -17 115 8.0 9.7 0.00 0.00 0.00 1017.1
20260502221100 -17 216 4.8 4.8 0.00 0.00 0.00 1017.0
20260502220555 -17 26 4.8 4.8 0.00 0.00 0.00 1017.0
20260502220052 -17 151 1.6 1.6 0.00 0.00 0.00 1017.0
20260502215550 -17 340 6.4 8.0 0.00 0.00 0.00 1016.8
20260502215046 -17 68 3.2 3.2 0.00 0.00 0.00 1017.2
20260502214543 -17 128 3.2 4.8 0.00 0.00 0.00 1017.1
20260502214041 -17 308 12.9 17.7 0.00 0.00 0.00 1016.9
20260502213537 -17 181 4.8 4.8 0.00 0.00 0.00 1016.9
20260502213035 -17 267 8.0 11.3 0.00 0.00 0.00 1016.8